Regional Weather Roundup
Issued by NWS Sterling, VA

Home | Current Version | Previous Version | Text Only | Print | Product List | Glossary Off
Versions: 1 2 3 4 5 6 7 8 9 10 11 12 13 14 15 16 17 18 19 20 21 22 23 24 25 26 27 28

000
ASUS41 KLWX 252011
RWRLWX

REGIONAL WEATHER ROUNDUP
NATIONAL WEATHER SERVICE BALTIMORE MD/WASHINGTON DC
400 PM EDT WED APR 25 2018

Note: "FAIR" indicates few or no clouds below 12,000 feet
with no significant weather and/or obstructions to visibility.
 TC=TEMPERATURE CELSIUS

 * =Non NWS site. Station does not report precipitation (e.g. rain,
    snow, etc.), thunder, or fog.

DCZ001-MDZ009-015-VAZ040>042-051-053>054-252100-
WASHINGTON METRO

CITY           SKY/WX    TMP DP  RH WIND       PRES   REMARKS
WASHINGTON NAT CLOUDY    66  57  72 NW12      29.69F
DULLES         CLOUDY    60  58  92 NW10      29.71F
ANDREWS AFB    CLOUDY    63  58  86 NW8       29.67F
FT BELVOIR     CLOUDY    64  58  80 NW9       29.69F
QUANTICO       CLOUDY    64  58  80 NW10      29.70F
COLLEGE PARK*  CLOUDY    63  58  82 N6        29.68F
LEESBURG*      HVY RAIN  55  55 100 NW5       29.73F
MANASSAS*      CLOUDY    61  57  87 NW10      29.71F
GAITHERSBURG*  CLOUDY    62  57  83 NW10      29.71F

$$

MDZ006>007-011-014-252100-
BALTIMORE METRO

CITY           SKY/WX    TMP DP  RH WIND       PRES   REMARKS
BWI AIRPORT    CLOUDY    63  61  93 N8        29.67F
MD SCIENCE CTR   N/A     64  61  90 MISG      29.67F
MARTIN STATE   CLOUDY    63  63 100 SE5       29.69F
ANNAPOLIS      CLOUDY    64  59  83 NW6       29.67F
FORT MEADE*    CLOUDY    63  59  88 NW7       29.70F

$$

MDZ012-015-019>023-252100-
MARYLAND EASTERN SHORE

CITY           SKY/WX    TMP DP  RH WIND       PRES   REMARKS
OCEAN CITY     CLOUDY    59  57  93 S7        29.67F FOG
SALISBURY      PTSUNNY   73  59  61 SW9       29.64F
BAY BRIDGE AP* CLOUDY    63  59  88 NW6       29.67F
CAMBRIDGE*     PTSUNNY   68  61  77 NW8       29.65F
EASTON*        MOSUNNY   70  61  73 W7        29.69F

$$

MDZ017>025-252100-
SOUTHERN MARYLAND

CITY           SKY/WX    TMP DP  RH WIND       PRES   REMARKS
PATUXENT RIVER DRIZZLE   64  60  87 N6        29.67F FOG
ST INIGOES     CLOUDY    64  61  90 W8        29.66F FOG
LEONARDTOWN*   CLOUDY    61  57  88 CALM      29.69F

$$

MDZ003>005-252100-
NORTH CENTRAL MARYLAND

CITY           SKY/WX    TMP DP  RH WIND       PRES   REMARKS
FREDERICK*     RAIN      63  63 100 CALM      29.74F
HAGERSTOWN APT CLOUDY    66  56  70 VRB5      29.71F
WESTMINSTER*   CLOUDY    63  57  82 NW5       29.70F

$$

MDZ501>502-252100-
WESTERN MARYLAND

CITY           SKY/WX    TMP DP  RH WIND       PRES   REMARKS
OAKLAND*       CLOUDY    48  48 100 NW8       29.78F
CUMBERLAND*    PTSUNNY   68  52  56 NW6       29.77F

$$

VAZ025>031-252100-
SHENANDOAH VALLEY

CITY           SKY/WX    TMP DP  RH WIND       PRES   REMARKS
WINCHESTER*    CLOUDY    64  52  63 NW15      29.72F
FRONT ROYAL*   CLOUDY    66  54  63 N6G16     29.70F
LURAY*         CLOUDY    64  55  72 SW3       29.72F
NEW MARKET*    CLOUDY    63  51  64 NW7       29.72S
STAUNTON*      CLOUDY    63  54  73 NW7       29.76S
WAYNESBORO*    CLOUDY    59  55  85 W6        29.75F

$$

WVZ021-048>050-054>055-252100-
EASTERN WEST VIRGINIA PANHANDLE

CITY           SKY/WX    TMP DP  RH WIND       PRES   REMARKS
MARTINSBURG    CLOUDY    66  54  65 CALM      29.70F
PETERSBURG*    CLOUDY    63  51  66 NW8       29.75F

$$

VAZ036>039-050-252100-
CENTRAL FOOTHILLS

CITY           SKY/WX    TMP DP  RH WIND       PRES   REMARKS
CHARLOTTESVILL CLOUDY    70  58  65 NE6       29.69F
CULPEPER*      CLOUDY    65  56  74 N3        29.71F
ORANGE*        CLOUDY    64  55  72 CALM      29.71F
GORDONSVILLE*  CLOUDY    65  60  83 NE3       29.70F
WARRENTON*     LGT RAIN  60  57  88 NE8       29.70F

$$

VAZ055>057-252100-
NORTH AND CENTRAL PIEDMONT

CITY           SKY/WX    TMP DP  RH WIND       PRES   REMARKS
FREDERICKSBRG* CLOUDY    63  58  85 NW7       29.70S
STAFFORD*      CLOUDY    63  61  92 NW7       29.74S

$$

NCZ024-NYZ072-PAZ021-071-VAZ022-071-252100-
OTHER REGIONAL OBSERVATIONS

CITY           SKY/WX    TMP DP  RH WIND       PRES   REMARKS
NEW YORK CITY  CLOUDY    58  57  97 CALM      29.73F FOG
PHILADELPHIA   PTSUNNY   68  59  73 SE5       29.66F
PITTSBURGH     DRIZZLE   55  53  93 NW12      29.80S FOG
ROANOKE        LGT RAIN  65  55  70 NW6       29.77F
RICHMOND       CLOUDY    63  61  93 NW8       29.69F
RALEIGH        CLOUDY    62  58  86 VRB6      29.75S

$$

ANZ530>537-252100-
MARINE OBSERVATIONS

STATION/POSITION TIME  TEMP    WIND        PRES
                       AIR SEA DIR/SP/G
                 (UTC) (F)     (DEG/KT/KT) (MB)
THOMAS PT LIGHT  2000   60 54   10/  9/  9 1005.6F
BALT KEY BRIDGE  1948   61     360/  1/  2 1004.8F
COVE POINT       1948   57     340/  7/ 10 1005.3F
LEWISETTA        1948   58 57  120/  3/  3 1004.7F
SOLOMONS ISLAND  1948   60 54  280/  5/  9 1004.6F
PINEY POINT      1948          340/ 14/ 15   N/A

$$





USA.gov is the U.S. government's official web portal to all federal, state and local government web resources and services.